Time,TemperatureF,DewpointF,PressureIn,WindDirection,WindDirectionDegrees,WindSpeedMPH,WindSpeedGustMPH,Humidity,HourlyPrecipIn,Conditions,Clouds,dailyrainin,SoftwareType,DateUTC
2013-01-06 00:07:00,15.4,4.5,30.62,NNE,22,0.0,0.0,61,0.00,,,0.00,meteohub,2013-01-06 07:07:00,
2013-01-06 00:12:00,15.3,4.3,30.62,NNE,22,0.0,0.0,61,0.00,,,0.00,meteohub,2013-01-06 07:12:00,
2013-01-06 00:17:00,15.1,3.7,30.62,NNE,22,0.0,0.0,60,0.00,,,0.00,meteohub,2013-01-06 07:17:00,
2013-01-06 00:22:00,14.9,3.6,30.63,NNE,22,0.0,0.0,60,0.00,,,0.00,meteohub,2013-01-06 07:22:00,
2013-01-06 00:27:00,14.7,3.4,30.63,NNE,22,0.0,0.0,60,0.00,,,0.00,meteohub,2013-01-06 07:27:00,
2013-01-06 00:32:00,14.5,3.6,30.63,NNE,22,0.0,0.0,61,0.00,,,0.00,meteohub,2013-01-06 07:32:00,
2013-01-06 00:37:00,14.4,3.0,30.63,NNE,22,0.0,0.0,60,0.00,,,0.00,meteohub,2013-01-06 07:37:00,
2013-01-06 00:42:00,14.2,3.2,30.64,WSW,248,0.0,0.0,61,0.00,,,0.00,meteohub,2013-01-06 07:42:00,
2013-01-06 00:47:00,14.2,3.2,30.64,WNW,292,0.0,0.0,61,0.00,,,0.00,meteohub,2013-01-06 07:47:00,
2013-01-06 00:52:00,14.2,3.2,30.64,WNW,292,0.0,0.0,61,0.00,,,0.00,meteohub,2013-01-06 07:52:00,
2013-01-06 00:57:00,14.0,3.4,30.64,WNW,292,0.0,0.0,62,0.00,,,0.00,meteohub,2013-01-06 07:57:00,
2013-01-06 01:02:00,13.8,3.2,30.64,WNW,292,0.0,0.0,62,0.00,,,0.00,meteohub,2013-01-06 08:02:00,
2013-01-06 01:07:00,13.8,3.2,30.64,WNW,292,0.0,0.0,62,0.00,,,0.00,meteohub,2013-01-06 08:07:00,
2013-01-06 01:12:00,13.6,3.0,30.64,WNW,292,0.0,0.0,62,0.00,,,0.00,meteohub,2013-01-06 08:12:00,
2013-01-06 01:17:00,13.6,3.0,30.64,WNW,292,0.0,0.0,62,0.00,,,0.00,meteohub,2013-01-06 08:17:00,
2013-01-06 01:22:00,13.6,3.0,30.64,WNW,292,0.0,0.0,62,0.00,,,0.00,meteohub,2013-01-06 08:22:00,
2013-01-06 01:27:00,13.8,3.2,30.64,WNW,292,0.0,0.0,62,0.00,,,0.00,meteohub,2013-01-06 08:27:00,
2013-01-06 01:32:00,13.6,3.0,30.64,WNW,292,0.0,0.0,62,0.00,,,0.00,meteohub,2013-01-06 08:32:00,
2013-01-06 01:37:00,13.6,3.0,30.64,WNW,292,0.0,0.0,62,0.00,,,0.00,meteohub,2013-01-06 08:37:00,
2013-01-06 01:42:00,13.8,3.2,30.64,WNW,292,0.0,0.0,62,0.00,,,0.00,meteohub,2013-01-06 08:42:00,
2013-01-06 01:47:00,13.8,3.2,30.64,WNW,292,0.0,0.0,62,0.00,,,0.00,meteohub,2013-01-06 08:47:00,
2013-01-06 01:52:00,13.6,3.0,30.64,WNW,292,0.0,0.0,62,0.00,,,0.00,meteohub,2013-01-06 08:52:00,
2013-01-06 01:57:00,13.6,3.0,30.64,WNW,292,0.0,0.0,62,0.00,,,0.00,meteohub,2013-01-06 08:57:00,
2013-01-06 02:02:00,13.5,2.8,30.64,WNW,292,0.0,0.0,62,0.00,,,0.00,meteohub,2013-01-06 09:02:00,
2013-01-06 02:07:00,13.5,2.8,30.64,WNW,292,0.0,0.0,62,0.00,,,0.00,meteohub,2013-01-06 09:07:00,
2013-01-06 02:12:00,13.3,2.7,30.65,WNW,292,0.0,0.0,62,0.00,,,0.00,meteohub,2013-01-06 09:12:00,
2013-01-06 02:17:00,13.1,2.5,30.65,WNW,292,0.0,0.0,62,0.00,,,0.00,meteohub,2013-01-06 09:17:00,
2013-01-06 02:22:00,12.7,2.1,30.66,WNW,292,0.0,0.0,62,0.00,,,0.00,meteohub,2013-01-06 09:22:00,
2013-01-06 02:27:00,12.6,2.1,30.66,WNW,292,0.0,0.0,62,0.00,,,0.00,meteohub,2013-01-06 09:27:00,
2013-01-06 02:32:00,12.7,2.1,30.66,WNW,292,0.0,0.0,62,0.00,,,0.00,meteohub,2013-01-06 09:32:00,
2013-01-06 02:37:00,12.7,2.1,30.66,WNW,292,0.0,0.0,62,0.00,,,0.00,meteohub,2013-01-06 09:37:00,
2013-01-06 02:42:00,12.9,2.3,30.65,WNW,292,0.0,0.0,62,0.00,,,0.00,meteohub,2013-01-06 09:42:00,
2013-01-06 02:47:00,13.1,2.5,30.61,WNW,292,0.0,0.0,62,0.00,,,0.00,meteohub,2013-01-06 09:47:00,
2013-01-06 02:52:00,12.9,2.3,30.61,WNW,292,0.0,0.0,62,0.00,,,0.00,meteohub,2013-01-06 09:52:00,
2013-01-06 02:57:00,12.9,2.3,30.61,WNW,292,0.0,0.0,62,0.00,,,0.00,meteohub,2013-01-06 09:57:00,
2013-01-06 03:02:00,12.9,2.3,30.61,WNW,292,0.0,0.0,62,0.00,,,0.00,meteohub,2013-01-06 10:02:00,
2013-01-06 03:07:00,12.9,2.3,30.61,WNW,292,0.0,0.0,62,0.00,,,0.00,meteohub,2013-01-06 10:07:00,
2013-01-06 03:12:00,13.1,2.5,30.61,WNW,292,0.0,0.0,62,0.00,,,0.00,meteohub,2013-01-06 10:12:00,
2013-01-06 03:17:00,12.9,2.3,30.61,WNW,292,0.0,0.0,62,0.00,,,0.00,meteohub,2013-01-06 10:17:00,
2013-01-06 03:22:00,12.9,2.3,30.61,WNW,292,0.0,0.0,62,0.00,,,0.00,meteohub,2013-01-06 10:22:00,
2013-01-06 03:27:00,12.9,2.3,30.61,WNW,292,0.0,0.0,62,0.00,,,0.00,meteohub,2013-01-06 10:27:00,
2013-01-06 03:32:00,13.1,2.5,30.61,WNW,292,0.0,0.0,62,0.00,,,0.00,meteohub,2013-01-06 10:32:00,
2013-01-06 03:37:00,13.3,2.7,30.61,WNW,292,0.0,0.0,62,0.00,,,0.00,meteohub,2013-01-06 10:37:00,
2013-01-06 03:42:00,13.3,2.7,30.61,NW,315,0.0,0.0,62,0.00,,,0.00,meteohub,2013-01-06 10:42:00,
2013-01-06 03:47:00,13.1,2.5,30.61,NNE,22,0.0,0.0,62,0.00,,,0.00,meteohub,2013-01-06 10:47:00,
2013-01-06 03:52:00,12.9,2.3,30.61,NNE,22,0.0,0.0,62,0.00,,,0.00,meteohub,2013-01-06 10:52:00,
2013-01-06 03:57:00,12.7,2.1,30.62,NNE,22,0.0,0.0,62,0.00,,,0.00,meteohub,2013-01-06 10:57:00,
2013-01-06 04:02:00,12.6,2.1,30.62,NNE,22,0.0,0.0,62,0.00,,,0.00,meteohub,2013-01-06 11:02:00,
2013-01-06 04:07:00,12.7,2.1,30.62,NNE,22,0.0,0.0,62,0.00,,,0.00,meteohub,2013-01-06 11:07:00,
2013-01-06 04:12:00,12.7,2.1,30.62,NNE,22,0.0,0.0,62,0.00,,,0.00,meteohub,2013-01-06 11:12:00,
2013-01-06 04:17:00,12.7,2.1,30.62,NNE,22,0.0,0.0,62,0.00,,,0.00,meteohub,2013-01-06 11:17:00,
2013-01-06 04:22:00,12.6,2.1,30.62,NNE,22,0.0,0.0,62,0.00,,,0.00,meteohub,2013-01-06 11:22:00,
2013-01-06 04:27:00,12.2,1.8,30.63,NNE,22,0.0,0.0,62,0.00,,,0.00,meteohub,2013-01-06 11:27:00,
2013-01-06 04:32:00,12.2,1.8,30.63,NNE,22,0.0,0.0,62,0.00,,,0.00,meteohub,2013-01-06 11:32:00,
2013-01-06 04:37:00,12.4,1.9,30.62,NNE,22,0.0,0.0,62,0.00,,,0.00,meteohub,2013-01-06 11:37:00,
2013-01-06 04:42:00,12.2,1.8,30.63,NNE,22,0.0,0.0,62,0.00,,,0.00,meteohub,2013-01-06 11:42:00,
2013-01-06 04:47:00,12.0,1.6,30.63,NNE,22,0.0,0.0,62,0.00,,,0.00,meteohub,2013-01-06 11:47:00,
2013-01-06 04:52:00,11.7,1.2,30.63,NNE,22,0.0,0.0,62,0.00,,,0.00,meteohub,2013-01-06 11:52:00,
2013-01-06 04:57:00,11.7,1.2,30.63,NNE,22,0.0,0.0,62,0.00,,,0.00,meteohub,2013-01-06 11:57:00,
2013-01-06 05:02:00,11.7,1.2,30.63,NNE,22,0.0,0.0,62,0.00,,,0.00,meteohub,2013-01-06 12:02:00,
2013-01-06 05:07:00,11.3,0.9,30.64,NNE,22,0.0,0.0,62,0.00,,,0.00,meteohub,2013-01-06 12:07:00,
2013-01-06 05:12:00,11.3,0.9,30.64,NNE,22,0.0,0.0,62,0.00,,,0.00,meteohub,2013-01-06 12:12:00,
2013-01-06 05:17:00,11.5,1.0,30.64,NNW,338,0.0,0.0,62,0.00,,,0.00,meteohub,2013-01-06 12:17:00,
2013-01-06 05:22:00,11.7,1.2,30.63,NNW,338,0.0,0.0,62,0.00,,,0.00,meteohub,2013-01-06 12:22:00,
2013-01-06 05:27:00,11.5,1.0,30.64,NE,45,0.0,0.0,62,0.00,,,0.00,meteohub,2013-01-06 12:27:00,
2013-01-06 05:32:00,11.3,0.9,30.60,NNE,22,0.0,0.0,62,0.00,,,0.00,meteohub,2013-01-06 12:32:00,
2013-01-06 05:37:00,11.7,1.2,30.60,NNE,22,0.0,0.0,62,0.00,,,0.00,meteohub,2013-01-06 12:37:00,
2013-01-06 05:42:00,11.8,1.4,30.59,NNE,22,0.0,0.0,62,0.00,,,0.00,meteohub,2013-01-06 12:42:00,
2013-01-06 05:47:00,11.7,1.2,30.60,NNE,22,0.0,0.0,62,0.00,,,0.00,meteohub,2013-01-06 12:47:00,
2013-01-06 05:52:00,11.1,0.7,30.60,NNE,22,0.0,0.0,62,0.00,,,0.00,meteohub,2013-01-06 12:52:00,
2013-01-06 05:57:00,10.9,0.5,30.61,NNE,22,0.0,0.0,62,0.00,,,0.00,meteohub,2013-01-06 12:57:00,
2013-01-06 06:02:00,10.8,0.3,30.61,NNE,22,0.0,0.0,62,0.00,,,0.00,meteohub,2013-01-06 13:02:00,
2013-01-06 06:07:00,10.9,0.5,30.61,NNE,22,0.0,0.0,62,0.00,,,0.00,meteohub,2013-01-06 13:07:00,
2013-01-06 06:12:00,10.8,0.3,30.61,NNE,22,0.0,0.0,62,0.00,,,0.00,meteohub,2013-01-06 13:12:00,
2013-01-06 06:17:00,10.4,0.0,30.61,NNE,22,0.0,0.0,62,0.00,,,0.00,meteohub,2013-01-06 13:17:00,
2013-01-06 06:22:00,10.2,-0.2,30.61,NNE,22,0.0,0.0,62,0.00,,,0.00,meteohub,2013-01-06 13:22:00,
2013-01-06 06:27:00,10.2,-0.2,30.61,NNE,22,0.0,0.0,62,0.00,,,0.00,meteohub,2013-01-06 13:27:00,
2013-01-06 06:32:00,10.4,0.0,30.61,NNE,22,0.0,0.0,62,0.00,,,0.00,meteohub,2013-01-06 13:32:00,
2013-01-06 06:37:00,10.4,0.0,30.61,NNE,22,0.0,0.0,62,0.00,,,0.00,meteohub,2013-01-06 13:37:00,
2013-01-06 06:42:00,10.4,0.0,30.61,NNE,22,0.0,0.0,62,0.00,,,0.00,meteohub,2013-01-06 13:42:00,
2013-01-06 06:47:00,10.2,-0.2,30.61,NNE,22,0.0,0.0,62,0.00,,,0.00,meteohub,2013-01-06 13:47:00,
2013-01-06 06:52:00,10.4,0.0,30.61,NNE,22,0.0,0.0,62,0.00,,,0.00,meteohub,2013-01-06 13:52:00,
2013-01-06 06:57:00,10.4,0.0,30.61,NNE,22,0.0,0.0,62,0.00,,,0.00,meteohub,2013-01-06 13:57:00,
2013-01-06 07:02:00,10.4,0.0,30.61,NNE,22,0.0,0.0,62,0.00,,,0.00,meteohub,2013-01-06 14:02:00,
2013-01-06 07:07:00,10.4,0.0,30.61,NNE,22,0.0,0.0,62,0.00,,,0.00,meteohub,2013-01-06 14:07:00,
2013-01-06 07:12:00,10.2,-0.2,30.61,NNE,22,0.0,0.0,62,0.00,,,0.00,meteohub,2013-01-06 14:12:00,
2013-01-06 07:17:00,10.2,-0.2,30.61,NNE,22,0.0,0.0,62,0.00,,,0.00,meteohub,2013-01-06 14:17:00,
2013-01-06 07:22:00,10.2,-0.2,30.61,NNE,22,0.0,0.0,62,0.00,,,0.00,meteohub,2013-01-06 14:22:00,
2013-01-06 07:27:00,10.0,-0.4,30.62,NNE,22,0.0,0.0,62,0.00,,,0.00,meteohub,2013-01-06 14:27:00,
2013-01-06 07:32:00,10.2,-0.2,30.61,NNE,22,0.0,0.0,62,0.00,,,0.00,meteohub,2013-01-06 14:32:00,
2013-01-06 07:37:00,10.2,-0.2,30.61,NNE,22,0.0,0.0,62,0.00,,,0.00,meteohub,2013-01-06 14:37:00,
2013-01-06 07:42:00,10.2,-0.2,30.61,NNE,22,0.0,0.0,62,0.00,,,0.00,meteohub,2013-01-06 14:42:00,
2013-01-06 07:47:00,10.4,0.0,30.61,NNE,22,0.0,0.0,62,0.00,,,0.00,meteohub,2013-01-06 14:47:00,
2013-01-06 07:52:00,10.9,0.5,30.61,NNE,22,0.0,0.0,62,0.00,,,0.00,meteohub,2013-01-06 14:52:00,
2013-01-06 07:57:00,11.3,0.9,30.60,NNE,22,0.0,0.0,62,0.00,,,0.00,meteohub,2013-01-06 14:57:00,
2013-01-06 08:02:00,11.8,1.4,30.59,NNE,22,0.0,0.0,62,0.00,,,0.00,meteohub,2013-01-06 15:02:00,
2013-01-06 08:07:00,12.6,2.1,30.58,NNE,22,0.0,0.0,62,0.00,,,0.00,meteohub,2013-01-06 15:07:00,
2013-01-06 08:12:00,12.7,2.1,30.58,NNE,22,0.0,0.0,62,0.00,,,0.00,meteohub,2013-01-06 15:12:00,
2013-01-06 08:17:00,13.5,2.8,30.57,NNE,22,0.0,0.0,62,0.00,,,0.00,meteohub,2013-01-06 15:17:00,
2013-01-06 08:22:00,14.4,1.6,30.56,NNE,22,0.0,0.0,56,0.00,,,0.00,meteohub,2013-01-06 15:22:00,
2013-01-06 08:27:00,15.1,2.3,30.55,NNE,22,0.0,0.0,56,0.00,,,0.00,meteohub,2013-01-06 15:27:00,
2013-01-06 08:32:00,16.0,3.0,30.54,NNE,22,0.0,0.0,56,0.00,,,0.00,meteohub,2013-01-06 15:32:00,
2013-01-06 08:37:00,16.5,3.6,30.53,NNE,22,0.0,0.0,56,0.00,,,0.00,meteohub,2013-01-06 15:37:00,
2013-01-06 08:42:00,17.1,3.7,30.52,NNE,22,0.0,0.0,55,0.00,,,0.00,meteohub,2013-01-06 15:42:00,
2013-01-06 08:47:00,17.8,4.5,30.51,NNE,22,0.0,0.0,55,0.00,,,0.00,meteohub,2013-01-06 15:47:00,
2013-01-06 08:52:00,18.7,4.8,30.50,NNE,22,0.0,0.0,54,0.00,,,0.00,meteohub,2013-01-06 15:52:00,
2013-01-06 08:57:00,19.8,5.4,30.49,NNE,22,0.0,0.0,53,0.00,,,0.00,meteohub,2013-01-06 15:57:00,
2013-01-06 09:02:00,21.0,5.4,30.47,NNE,22,0.0,0.0,50,0.00,,,0.00,meteohub,2013-01-06 16:02:00,
2013-01-06 09:07:00,22.1,5.9,30.46,NNE,22,0.0,0.0,49,0.00,,,0.00,meteohub,2013-01-06 16:07:00,
2013-01-06 09:12:00,22.6,5.9,30.45,NNE,22,0.0,0.0,48,0.00,,,0.00,meteohub,2013-01-06 16:12:00,
2013-01-06 09:17:00,23.4,6.6,30.44,ENE,68,0.0,0.0,48,0.00,,,0.00,meteohub,2013-01-06 16:17:00,
2013-01-06 09:22:00,23.9,6.6,30.43,ENE,68,0.0,0.0,47,0.00,,,0.00,meteohub,2013-01-06 16:22:00,
2013-01-06 09:27:00,24.6,6.8,30.43,ENE,68,0.0,0.0,46,0.00,,,0.00,meteohub,2013-01-06 16:27:00,
2013-01-06 09:32:00,25.3,7.0,30.42,ESE,112,1.0,0.0,45,0.00,,,0.00,meteohub,2013-01-06 16:32:00,
2013-01-06 09:37:00,26.2,7.9,30.40,ESE,112,0.0,2.0,45,0.00,,,0.00,meteohub,2013-01-06 16:37:00,
2013-01-06 09:42:00,26.8,7.9,30.40,ESE,112,0.0,2.0,44,0.00,,,0.00,meteohub,2013-01-06 16:42:00,
2013-01-06 09:47:00,27.9,8.2,30.38,SSW,202,0.0,2.0,43,0.00,,,0.00,meteohub,2013-01-06 16:47:00,
2013-01-06 09:52:00,28.4,8.8,30.38,ESE,112,0.0,0.0,43,0.00,,,0.00,meteohub,2013-01-06 16:52:00,
2013-01-06 09:57:00,28.9,8.8,30.37,SE,135,0.0,0.0,42,0.00,,,0.00,meteohub,2013-01-06 16:57:00,
2013-01-06 10:02:00,29.7,9.5,30.36,East,90,0.0,3.0,42,0.00,,,0.00,meteohub,2013-01-06 17:02:00,
2013-01-06 10:07:00,30.2,9.9,30.35,SSW,202,0.0,3.0,42,0.00,,,0.00,meteohub,2013-01-06 17:07:00,
2013-01-06 10:12:00,30.6,9.7,30.35,SSW,202,0.0,3.0,41,0.00,,,0.00,meteohub,2013-01-06 17:12:00,
2013-01-06 10:17:00,31.1,10.2,30.31,ESE,112,0.0,0.0,41,0.00,,,0.00,meteohub,2013-01-06 17:17:00,
2013-01-06 10:22:00,31.8,10.8,30.30,SE,135,0.0,0.0,41,0.00,,,0.00,meteohub,2013-01-06 17:22:00,
2013-01-06 10:27:00,32.4,11.3,30.29,East,90,0.0,0.0,41,0.00,,,0.00,meteohub,2013-01-06 17:27:00,
2013-01-06 10:32:00,33.1,11.5,30.28,West,270,0.0,1.0,40,0.00,,,0.00,meteohub,2013-01-06 17:32:00,
2013-01-06 10:37:00,33.8,12.0,30.27,East,90,0.0,1.0,40,0.00,,,0.00,meteohub,2013-01-06 17:37:00,
2013-01-06 10:42:00,34.3,12.6,30.27,ESE,112,0.0,3.0,40,0.00,,,0.00,meteohub,2013-01-06 17:42:00,
2013-01-06 10:47:00,35.1,13.3,30.26,ESE,112,0.0,3.0,40,0.00,,,0.00,meteohub,2013-01-06 17:47:00,
2013-01-06 10:52:00,35.6,13.1,30.25,ESE,112,1.0,3.0,39,0.00,,,0.00,meteohub,2013-01-06 17:52:00,
2013-01-06 10:57:00,36.0,13.5,30.25,ESE,112,0.0,3.0,39,0.00,,,0.00,meteohub,2013-01-06 17:57:00,
2013-01-06 11:02:00,36.5,14.0,30.20,ESE,112,2.0,3.0,39,0.00,,,0.00,meteohub,2013-01-06 18:02:00,
2013-01-06 11:07:00,36.7,13.5,30.20,ESE,112,0.0,3.0,38,0.00,,,0.00,meteohub,2013-01-06 18:07:00,
2013-01-06 11:12:00,37.4,13.6,30.19,SSE,158,0.0,2.0,37,0.00,,,0.00,meteohub,2013-01-06 18:12:00,
2013-01-06 11:17:00,37.8,13.3,30.19,East,90,0.0,3.0,36,0.00,,,0.00,meteohub,2013-01-06 18:17:00,
2013-01-06 11:22:00,38.1,13.6,30.18,ENE,68,0.0,3.0,36,0.00,,,0.00,meteohub,2013-01-06 18:22:00,
2013-01-06 11:27:00,38.8,12.9,30.17,ENE,68,0.0,3.0,34,0.00,,,0.00,meteohub,2013-01-06 18:27:00,
2013-01-06 11:32:00,39.4,12.0,30.17,SW,225,0.0,3.0,32,0.00,,,0.00,meteohub,2013-01-06 18:32:00,
2013-01-06 11:37:00,40.3,12.2,30.16,ESE,112,0.0,4.0,31,0.00,,,0.00,meteohub,2013-01-06 18:37:00,
2013-01-06 11:42:00,40.8,12.6,30.15,NNE,22,3.0,4.0,31,0.00,,,0.00,meteohub,2013-01-06 18:42:00,
2013-01-06 11:47:00,41.5,12.6,30.14,ESE,112,2.0,4.0,30,0.00,,,0.00,meteohub,2013-01-06 18:47:00,
2013-01-06 11:52:00,42.1,12.9,30.14,ESE,112,2.0,5.0,30,0.00,,,0.00,meteohub,2013-01-06 18:52:00,
2013-01-06 11:57:00,42.4,12.6,30.13,ENE,68,2.0,5.0,29,0.00,,,0.00,meteohub,2013-01-06 18:57:00,
2013-01-06 12:02:00,43.0,12.9,30.09,NW,315,0.0,5.0,29,0.00,,,0.00,meteohub,2013-01-06 19:02:00,
2013-01-06 12:07:00,43.5,12.7,30.08,ESE,112,2.0,4.0,28,0.00,,,0.00,meteohub,2013-01-06 19:07:00,
2013-01-06 12:12:00,44.1,13.1,30.08,ESE,112,2.0,4.0,28,0.00,,,0.00,meteohub,2013-01-06 19:12:00,
2013-01-06 12:17:00,44.6,13.6,30.07,ESE,112,0.0,5.0,28,0.00,,,0.00,meteohub,2013-01-06 19:17:00,
2013-01-06 12:22:00,45.0,13.8,30.06,North,0,1.0,5.0,28,0.00,,,0.00,meteohub,2013-01-06 19:22:00,
2013-01-06 12:32:00,45.7,14.5,30.06,NNE,22,0.0,4.0,28,0.00,,,0.00,meteohub,2013-01-06 19:32:00,
2013-01-06 12:37:00,46.0,14.9,30.05,NNW,338,0.0,2.0,28,0.00,,,0.00,meteohub,2013-01-06 19:37:00,
2013-01-06 12:52:00,46.8,12.0,30.01,NNE,22,0.0,3.0,24,0.00,,,0.00,meteohub,2013-01-06 19:52:00,
2013-01-06 13:02:00,47.5,15.3,30.00,East,90,1.0,2.0,27,0.00,,,0.00,meteohub,2013-01-06 20:02:00,
2013-01-06 13:07:00,47.7,15.4,30.00,NNW,338,0.0,3.0,27,0.00,,,0.00,meteohub,2013-01-06 20:07:00,
2013-01-06 13:12:00,47.7,12.7,30.00,East,90,0.0,4.0,24,0.00,,,0.00,meteohub,2013-01-06 20:12:00,
2013-01-06 13:22:00,47.8,10.9,30.00,ENE,68,0.0,3.0,22,0.00,,,0.00,meteohub,2013-01-06 20:22:00,
2013-01-06 13:27:00,48.2,13.1,29.99,NW,315,0.0,2.0,24,0.00,,,0.00,meteohub,2013-01-06 20:27:00,
2013-01-06 13:32:00,48.7,13.6,29.99,NNW,338,0.0,2.0,24,0.00,,,0.00,meteohub,2013-01-06 20:32:00,
2013-01-06 13:37:00,48.7,13.6,29.99,ENE,68,0.0,3.0,24,0.00,,,0.00,meteohub,2013-01-06 20:37:00,
2013-01-06 13:42:00,48.6,10.4,29.99,NE,45,0.0,3.0,21,0.00,,,0.00,meteohub,2013-01-06 20:42:00,
2013-01-06 13:47:00,48.6,10.4,29.95,ENE,68,0.0,3.0,21,0.00,,,0.00,meteohub,2013-01-06 20:47:00,
2013-01-06 13:52:00,48.7,10.6,29.95,NNE,22,0.0,3.0,21,0.00,,,0.00,meteohub,2013-01-06 20:52:00,
2013-01-06 13:57:00,48.2,10.2,29.96,North,0,0.0,3.0,21,0.00,,,0.00,meteohub,2013-01-06 20:57:00,
2013-01-06 14:02:00,48.2,10.2,29.96,NNE,22,0.0,3.0,21,0.00,,,0.00,meteohub,2013-01-06 21:02:00,
2013-01-06 14:07:00,47.8,7.7,29.96,North,0,2.0,3.0,19,0.00,,,0.00,meteohub,2013-01-06 21:07:00,
2013-01-06 14:12:00,48.0,11.1,29.96,NNW,338,0.0,3.0,22,0.00,,,0.00,meteohub,2013-01-06 21:12:00,
2013-01-06 14:17:00,48.2,10.2,29.96,NNW,338,0.0,3.0,21,0.00,,,0.00,meteohub,2013-01-06 21:17:00,
2013-01-06 14:22:00,48.2,10.2,29.96,NNE,22,0.0,2.0,21,0.00,,,0.00,meteohub,2013-01-06 21:22:00,
2013-01-06 14:27:00,48.2,10.2,29.96,ENE,68,2.0,2.0,21,0.00,,,0.00,meteohub,2013-01-06 21:27:00,
2013-01-06 14:32:00,48.0,11.1,29.96,NNE,22,0.0,3.0,22,0.00,,,0.00,meteohub,2013-01-06 21:32:00,
2013-01-06 14:37:00,48.0,11.1,29.96,ENE,68,0.0,3.0,22,0.00,,,0.00,meteohub,2013-01-06 21:37:00,
2013-01-06 14:42:00,48.2,10.2,29.96,NE,45,0.0,3.0,21,0.00,,,0.00,meteohub,2013-01-06 21:42:00,
2013-01-06 14:47:00,48.0,11.1,29.96,NNE,22,0.0,3.0,22,0.00,,,0.00,meteohub,2013-01-06 21:47:00,
2013-01-06 14:52:00,48.0,11.1,29.96,NNW,338,0.0,3.0,22,0.00,,,0.00,meteohub,2013-01-06 21:52:00,
2013-01-06 15:02:00,47.7,10.8,29.96,ENE,68,0.0,2.0,22,0.00,,,0.00,meteohub,2013-01-06 22:02:00,
2013-01-06 15:07:00,47.5,10.6,29.96,ESE,112,1.0,3.0,22,0.00,,,0.00,meteohub,2013-01-06 22:07:00,
2013-01-06 15:12:00,47.5,10.6,29.96,ENE,68,0.0,3.0,22,0.00,,,0.00,meteohub,2013-01-06 22:12:00,
2013-01-06 15:17:00,47.3,10.4,29.97,ENE,68,0.0,3.0,22,0.00,,,0.00,meteohub,2013-01-06 22:17:00,
2013-01-06 15:22:00,46.9,10.2,29.97,ESE,112,0.0,3.0,22,0.00,,,0.00,meteohub,2013-01-06 22:22:00,
2013-01-06 15:27:00,46.8,10.0,29.97,ENE,68,0.0,3.0,22,0.00,,,0.00,meteohub,2013-01-06 22:27:00,
2013-01-06 15:32:00,46.4,9.7,29.98,ENE,68,0.0,0.0,22,0.00,,,0.00,meteohub,2013-01-06 22:32:00,
2013-01-06 15:37:00,45.9,9.3,29.98,ENE,68,0.0,1.0,22,0.00,,,0.00,meteohub,2013-01-06 22:37:00,
2013-01-06 15:42:00,45.5,9.0,29.99,NNE,22,0.0,1.0,22,0.00,,,0.00,meteohub,2013-01-06 22:42:00,
2013-01-06 15:47:00,45.3,8.8,29.99,ENE,68,0.0,1.0,22,0.00,,,0.00,meteohub,2013-01-06 22:47:00,
2013-01-06 15:52:00,45.3,8.8,29.99,ENE,68,0.0,0.0,22,0.00,,,0.00,meteohub,2013-01-06 22:52:00,
2013-01-06 16:02:00,44.8,8.4,30.00,NW,315,0.0,2.0,22,0.00,,,0.00,meteohub,2013-01-06 23:02:00,
2013-01-06 16:07:00,44.2,9.0,30.00,ENE,68,0.0,2.0,23,0.00,,,0.00,meteohub,2013-01-06 23:07:00,
2013-01-06 16:12:00,43.3,8.1,30.01,ENE,68,0.0,4.0,23,0.00,,,0.00,meteohub,2013-01-06 23:12:00,
2013-01-06 16:17:00,42.8,9.5,30.02,ENE,68,1.0,4.0,25,0.00,,,0.00,meteohub,2013-01-06 23:17:00,
2013-01-06 16:22:00,42.1,9.7,30.03,NNE,22,0.0,4.0,26,0.00,,,0.00,meteohub,2013-01-06 23:22:00,
2013-01-06 16:27:00,41.2,9.0,30.04,ENE,68,0.0,4.0,26,0.00,,,0.00,meteohub,2013-01-06 23:27:00,
2013-01-06 16:32:00,40.5,10.0,30.05,ENE,68,0.0,2.0,28,0.00,,,0.00,meteohub,2013-01-06 23:32:00,
2013-01-06 16:37:00,39.4,9.1,30.06,ENE,68,0.0,2.0,28,0.00,,,0.00,meteohub,2013-01-06 23:37:00,
2013-01-06 16:42:00,38.7,9.1,30.07,ENE,68,0.0,2.0,29,0.00,,,0.00,meteohub,2013-01-06 23:42:00,
2013-01-06 16:47:00,37.9,8.6,30.08,ENE,68,0.0,0.0,29,0.00,,,0.00,meteohub,2013-01-06 23:47:00,
2013-01-06 16:52:00,37.0,8.6,30.09,ENE,68,0.0,0.0,30,0.00,,,0.00,meteohub,2013-01-06 23:52:00,
2013-01-06 16:57:00,36.1,7.7,30.10,ENE,68,0.0,0.0,30,0.00,,,0.00,meteohub,2013-01-06 23:57:00,
2013-01-06 17:02:00,35.4,7.2,30.11,ENE,68,0.0,0.0,30,0.00,,,0.00,meteohub,2013-01-07 00:02:00,
2013-01-06 17:12:00,34.3,6.3,30.12,NNE,22,0.0,0.0,30,0.00,,,0.00,meteohub,2013-01-07 00:12:00,
2013-01-06 17:17:00,34.0,6.6,30.12,NNE,22,0.0,0.0,31,0.00,,,0.00,meteohub,2013-01-07 00:17:00,
2013-01-06 17:22:00,33.4,6.1,30.13,WNW,292,0.0,0.0,31,0.00,,,0.00,meteohub,2013-01-07 00:22:00,
2013-01-06 17:27:00,33.1,6.4,30.14,NE,45,0.0,0.0,32,0.00,,,0.00,meteohub,2013-01-07 00:27:00,
2013-01-06 17:32:00,32.4,5.9,30.14,ENE,68,0.0,0.0,32,0.00,,,0.00,meteohub,2013-01-07 00:32:00,
2013-01-06 17:37:00,31.8,5.4,30.15,ENE,68,0.0,0.0,32,0.00,,,0.00,meteohub,2013-01-07 00:37:00,
2013-01-06 17:42:00,31.1,5.4,30.16,NE,45,0.0,0.0,33,0.00,,,0.00,meteohub,2013-01-07 00:42:00,
2013-01-06 17:47:00,30.7,5.0,30.17,NE,45,0.0,0.0,33,0.00,,,0.00,meteohub,2013-01-07 00:47:00,
2013-01-06 17:52:00,30.2,5.2,30.17,NE,45,0.0,0.0,34,0.00,,,0.00,meteohub,2013-01-07 00:52:00,
2013-01-06 18:02:00,29.3,5.0,30.18,NE,45,0.0,0.0,35,0.00,,,0.00,meteohub,2013-01-07 01:02:00,
2013-01-06 18:07:00,28.9,5.4,30.19,NE,45,0.0,0.0,36,0.00,,,0.00,meteohub,2013-01-07 01:07:00,
2013-01-06 18:12:00,28.6,5.7,30.19,NE,45,0.0,0.0,37,0.00,,,0.00,meteohub,2013-01-07 01:12:00,
2013-01-06 18:17:00,28.4,5.5,30.19,NE,45,0.0,0.0,37,0.00,,,0.00,meteohub,2013-01-07 01:17:00,
2013-01-06 18:22:00,28.6,6.3,30.19,West,270,0.0,0.0,38,0.00,,,0.00,meteohub,2013-01-07 01:22:00,
2013-01-06 18:27:00,28.4,6.6,30.19,WSW,248,0.0,0.0,39,0.00,,,0.00,meteohub,2013-01-07 01:27:00,
2013-01-06 18:32:00,28.2,7.0,30.20,NNE,22,0.0,1.0,40,0.00,,,0.00,meteohub,2013-01-07 01:32:00,
2013-01-06 18:37:00,27.9,7.2,30.20,NNE,22,0.0,1.0,41,0.00,,,0.00,meteohub,2013-01-07 01:37:00,
2013-01-06 18:42:00,27.9,7.2,30.20,NNE,22,0.0,1.0,41,0.00,,,0.00,meteohub,2013-01-07 01:42:00,
2013-01-06 18:47:00,27.5,7.0,30.17,NNE,22,0.0,0.0,41,0.00,,,0.00,meteohub,2013-01-07 01:47:00,
2013-01-06 18:52:00,27.1,6.6,30.17,NNE,22,0.0,0.0,41,0.00,,,0.00,meteohub,2013-01-07 01:52:00,
2013-01-06 18:57:00,27.1,6.6,30.17,NNE,22,0.0,0.0,41,0.00,,,0.00,meteohub,2013-01-07 01:57:00,
2013-01-06 19:02:00,27.1,6.6,30.17,NNE,22,0.0,0.0,41,0.00,,,0.00,meteohub,2013-01-07 02:02:00,
2013-01-06 19:07:00,27.0,7.0,30.18,ENE,68,0.0,0.0,42,0.00,,,0.00,meteohub,2013-01-07 02:07:00,
2013-01-06 19:12:00,26.8,6.8,30.18,ENE,68,0.0,0.0,42,0.00,,,0.00,meteohub,2013-01-07 02:12:00,
2013-01-06 19:17:00,27.0,7.0,30.18,ENE,68,0.0,0.0,42,0.00,,,0.00,meteohub,2013-01-07 02:17:00,
2013-01-06 19:22:00,26.8,7.3,30.18,ENE,68,0.0,0.0,43,0.00,,,0.00,meteohub,2013-01-07 02:22:00,
2013-01-06 19:27:00,26.8,7.3,30.18,ENE,68,0.0,0.0,43,0.00,,,0.00,meteohub,2013-01-07 02:27:00,
2013-01-06 19:32:00,26.6,7.2,30.18,ENE,68,0.0,0.0,43,0.00,,,0.00,meteohub,2013-01-07 02:32:00,
2013-01-06 19:37:00,26.4,7.0,30.18,ENE,68,0.0,0.0,43,0.00,,,0.00,meteohub,2013-01-07 02:37:00,
2013-01-06 19:42:00,26.4,7.0,30.18,ENE,68,0.0,0.0,43,0.00,,,0.00,meteohub,2013-01-07 02:42:00,
2013-01-06 19:47:00,26.2,7.3,30.22,ENE,68,0.0,0.0,44,0.00,,,0.00,meteohub,2013-01-07 02:47:00,
2013-01-06 19:52:00,26.2,7.3,30.22,ENE,68,0.0,0.0,44,0.00,,,0.00,meteohub,2013-01-07 02:52:00,
2013-01-06 19:57:00,26.2,7.3,30.22,ENE,68,0.0,0.0,44,0.00,,,0.00,meteohub,2013-01-07 02:57:00,
2013-01-06 20:02:00,26.2,7.3,30.19,ENE,68,0.0,0.0,44,0.00,,,0.00,meteohub,2013-01-07 03:02:00,
2013-01-06 20:07:00,26.1,7.7,30.19,ENE,68,0.0,0.0,45,0.00,,,0.00,meteohub,2013-01-07 03:07:00,
2013-01-06 20:12:00,26.1,7.2,30.19,ENE,68,0.0,0.0,44,0.00,,,0.00,meteohub,2013-01-07 03:12:00,
2013-01-06 20:22:00,26.2,7.9,30.19,North,0,0.0,0.0,45,0.00,,,0.00,meteohub,2013-01-07 03:22:00,
2013-01-06 20:27:00,26.2,7.9,30.19,North,0,0.0,0.0,45,0.00,,,0.00,meteohub,2013-01-07 03:27:00,
2013-01-06 20:32:00,26.4,8.1,30.18,North,0,0.0,0.0,45,0.00,,,0.00,meteohub,2013-01-07 03:32:00,
2013-01-06 20:37:00,26.4,8.1,30.18,North,0,0.0,0.0,45,0.00,,,0.00,meteohub,2013-01-07 03:37:00,
2013-01-06 20:42:00,26.6,8.2,30.18,North,0,0.0,0.0,45,0.00,,,0.00,meteohub,2013-01-07 03:42:00,
2013-01-06 20:47:00,26.6,8.2,30.18,North,0,0.0,0.0,45,0.00,,,0.00,meteohub,2013-01-07 03:47:00,
2013-01-06 20:52:00,26.8,8.2,30.18,North,0,0.0,0.0,45,0.00,,,0.00,meteohub,2013-01-07 03:52:00,
2013-01-06 20:57:00,26.8,8.2,30.18,North,0,0.0,0.0,45,0.00,,,0.00,meteohub,2013-01-07 03:57:00,
2013-01-06 21:02:00,27.0,8.4,30.18,North,0,0.0,0.0,45,0.00,,,0.00,meteohub,2013-01-07 04:02:00,
2013-01-06 21:07:00,27.3,8.8,30.17,NNE,22,0.0,0.0,45,0.00,,,0.00,meteohub,2013-01-07 04:07:00,
2013-01-06 21:12:00,27.3,8.8,30.17,NNE,22,0.0,0.0,45,0.00,,,0.00,meteohub,2013-01-07 04:12:00,
2013-01-06 21:17:00,27.7,9.1,30.17,NNE,22,0.0,0.0,45,0.00,,,0.00,meteohub,2013-01-07 04:17:00,
2013-01-06 21:22:00,27.9,9.3,30.17,NNE,22,0.0,0.0,45,0.00,,,0.00,meteohub,2013-01-07 04:22:00,
2013-01-06 21:27:00,28.0,9.0,30.16,NNE,22,0.0,0.0,44,0.00,,,0.00,meteohub,2013-01-07 04:27:00,
2013-01-06 21:32:00,28.4,9.3,30.16,NNE,22,0.0,0.0,44,0.00,,,0.00,meteohub,2013-01-07 04:32:00,
2013-01-06 21:37:00,28.6,9.5,30.16,NNE,22,0.0,0.0,44,0.00,,,0.00,meteohub,2013-01-07 04:37:00,
2013-01-06 21:42:00,28.6,9.5,30.16,NNE,22,0.0,0.0,44,0.00,,,0.00,meteohub,2013-01-07 04:42:00,
2013-01-06 21:47:00,28.8,9.1,30.15,NNE,22,0.0,0.0,43,0.00,,,0.00,meteohub,2013-01-07 04:47:00,
2013-01-06 21:52:00,29.1,9.5,30.15,NNE,22,0.0,0.0,43,0.00,,,0.00,meteohub,2013-01-07 04:52:00,
2013-01-06 21:57:00,29.1,9.5,30.15,NNE,22,0.0,0.0,43,0.00,,,0.00,meteohub,2013-01-07 04:57:00,
2013-01-06 22:02:00,29.1,9.5,30.15,WSW,248,0.0,0.0,43,0.00,,,0.00,meteohub,2013-01-07 05:02:00,
2013-01-06 22:07:00,28.9,9.3,30.15,WSW,248,0.0,0.0,43,0.00,,,0.00,meteohub,2013-01-07 05:07:00,
2013-01-06 22:12:00,28.9,9.3,30.15,WSW,248,0.0,0.0,43,0.00,,,0.00,meteohub,2013-01-07 05:12:00,
2013-01-06 22:17:00,28.9,9.3,30.15,WSW,248,0.0,0.0,43,0.00,,,0.00,meteohub,2013-01-07 05:17:00,
2013-01-06 22:22:00,28.9,9.3,30.15,WSW,248,0.0,0.0,43,0.00,,,0.00,meteohub,2013-01-07 05:22:00,
2013-01-06 22:27:00,28.9,9.3,30.15,WSW,248,0.0,0.0,43,0.00,,,0.00,meteohub,2013-01-07 05:27:00,
2013-01-06 22:32:00,29.1,9.5,30.15,WSW,248,0.0,0.0,43,0.00,,,0.00,meteohub,2013-01-07 05:32:00,
2013-01-06 22:37:00,28.9,9.3,30.15,WSW,248,0.0,0.0,43,0.00,,,0.00,meteohub,2013-01-07 05:37:00,
2013-01-06 22:42:00,28.9,9.3,30.15,ESE,112,0.0,0.0,43,0.00,,,0.00,meteohub,2013-01-07 05:42:00,
2013-01-06 22:47:00,28.9,9.3,30.15,ESE,112,0.0,0.0,43,0.00,,,0.00,meteohub,2013-01-07 05:47:00,
2013-01-06 22:52:00,28.8,9.1,30.15,ESE,112,0.0,0.0,43,0.00,,,0.00,meteohub,2013-01-07 05:52:00,
2013-01-06 22:57:00,28.8,9.1,30.15,ENE,68,0.0,0.0,43,0.00,,,0.00,meteohub,2013-01-07 05:57:00,
2013-01-06 23:02:00,29.3,9.7,30.11,NE,45,0.0,0.0,43,0.00,,,0.00,meteohub,2013-01-07 06:02:00,
2013-01-06 23:07:00,29.3,9.7,30.11,NE,45,0.0,0.0,43,0.00,,,0.00,meteohub,2013-01-07 06:07:00,
2013-01-06 23:12:00,29.5,9.9,30.11,NE,45,0.0,0.0,43,0.00,,,0.00,meteohub,2013-01-07 06:12:00,
2013-01-06 23:17:00,29.5,9.9,30.14,NE,45,0.0,0.0,43,0.00,,,0.00,meteohub,2013-01-07 06:17:00,
2013-01-06 23:22:00,29.5,9.9,30.14,NE,45,0.0,0.0,43,0.00,,,0.00,meteohub,2013-01-07 06:22:00,
2013-01-06 23:27:00,29.5,9.3,30.14,NE,45,0.0,0.0,42,0.00,,,0.00,meteohub,2013-01-07 06:27:00,
2013-01-06 23:32:00,29.5,9.3,30.14,NNE,22,0.0,0.0,42,0.00,,,0.00,meteohub,2013-01-07 06:32:00,
2013-01-06 23:37:00,29.7,9.5,30.14,NNE,22,0.0,0.0,42,0.00,,,0.00,meteohub,2013-01-07 06:37:00,
2013-01-06 23:42:00,29.5,9.3,30.14,NNE,22,0.0,0.0,42,0.00,,,0.00,meteohub,2013-01-07 06:42:00,
2013-01-06 23:47:00,29.8,9.5,30.14,East,90,0.0,0.0,42,0.00,,,0.00,meteohub,2013-01-07 06:47:00,
2013-01-06 23:52:00,30.0,9.7,30.14,NE,45,0.0,2.0,42,0.00,,,0.00,meteohub,2013-01-07 06:52:00,
2013-01-06 23:57:00,30.0,9.7,30.14,NE,45,0.0,2.0,42,0.00,,,0.00,meteohub,2013-01-07 06:57:00,